Wind_Speed
59 59 58 57 57 57 57 57 58 60 62 64 65 66 66 66 65 65 64 63 61 60 58 56 54 51 49 46 43 41 37 34 32 31 30 28 26 25 24 23 23 23 22
59 59 57 56 55 54 53 52 53 53 55 58 60 63 66 69 70 69 68 68 66 64 62 61 59 56 53 50 47 44 41 37 34 32 31 29 27 25 24 24 23 23 22
59 58 56 55 53 52 50 48 47 46 47 49 51 55 59 63 67 70 72 71 70 68 66 64 62 60 57 54 50 47 44 41 37 34 32 30 28 26 25 24 23 22 22
59 59 58 55 53 52 49 46 44 42 40 40 42 45 49 53 58 64 69 72 73 72 70 68 65 63 60 57 54 50 47 43 40 37 34 31 29 27 25 24 23 22 21
61 60 59 56 54 52 49 46 43 41 38 36 35 35 37 42 47 52 57 64 69 72 72 70 67 64 61 59 56 52 49 46 43 39 35 32 30 28 25 24 24 22 21
62 62 60 57 54 52 49 46 43 41 38 35 33 32 32 33 36 40 44 50 57 63 68 69 67 65 61 59 57 54 51 48 44 41 37 34 31 29 27 25 24 23 22
62 61 59 56 54 51 49 47 44 43 41 38 36 34 32 31 31 33 35 38 43 49 57 62 65 64 61 59 57 55 52 49 45 42 38 35 32 30 28 26 25 24 22
60 58 56 53 51 48 47 45 44 43 42 40 38 36 34 32 31 30 31 33 34 38 44 51 58 61 60 58 56 54 52 49 46 43 39 36 34 31 28 27 25 24 22
57 54 50 48 47 45 44 43 42 41 41 40 39 36 34 33 32 31 30 30 31 34 36 41 48 54 57 57 55 53 52 49 47 43 40 37 35 32 29 27 25 23 22
54 50 47 45 42 41 40 39 39 39 39 39 38 36 35 34 33 32 31 30 29 30 33 35 40 46 51 54 54 52 51 48 46 44 41 38 35 32 29 27 25 24 23
50 46 43 41 38 35 35 35 35 35 37 38 37 36 35 34 34 33 32 30 30 30 31 32 35 39 45 49 51 51 50 48 46 44 41 38 35 32 30 28 26 24 23
47 43 40 36 32 30 28 28 30 32 33 35 35 34 34 34 33 32 31 30 29 29 29 31 33 36 40 45 48 49 50 49 46 44 42 39 35 32 30 28 26 25 24
45 40 36 32 28 25 22 21 22 25 28 30 32 31 31 32 31 31 30 29 28 28 29 30 32 34 37 42 46 47 49 48 46 44 41 38 35 32 30 28 27 25 23
42 38 34 29 24 20 17 16 16 18 21 24 26 27 27 27 27 27 27 27 26 26 26 29 32 33 36 41 44 47 48 47 45 43 41 38 36 33 31 29 27 25 23
41 36 31 26 20 16 12 9 10 12 15 18 21 22 23 23 24 24 24 24 25 25 25 27 30 32 35 40 44 46 47 47 45 42 40 38 35 33 31 29 28 26 24
40 35 30 25 18 13 9 6 5 7 10 13 16 19 20 20 20 21 21 22 23 23 24 25 28 32 36 41 44 46 47 46 44 41 39 38 35 33 30 28 26 25 24
38 34 29 24 19 13 9 5 2 2 6 10 13 15 16 17 17 17 18 19 20 21 22 24 27 31 37 41 44 44 45 45 43 40 39 37 35 32 30 28 26 25 24
37 33 28 23 19 16 12 9 6 4 5 8 10 12 13 13 14 14 14 15 17 18 20 22 26 32 39 41 42 44 44 44 42 40 38 36 34 32 30 28 26 25 25
36 31 27 23 19 16 14 11 9 7 7 7 8 10 10 11 12 12 12 14 15 17 19 23 28 34 39 41 42 43 43 42 40 39 37 35 33 31 29 28 27 26 25
35 30 26 23 20 17 15 14 12 11 10 9 9 9 9 9 10 11 12 14 16 16 19 23 29 37 38 40 41 43 43 40 38 37 35 34 32 30 28 27 26 26 25
34 30 26 24 21 19 17 15 15 14 14 13 12 11 10 10 11 12 14 16 18 19 23 26 31 36 37 39 40 41 40 38 37 35 33 32 30 28 28 27 26 25 24
33 31 27 24 22 20 19 18 17 16 16 15 15 14 14 14 16 18 18 18 20 22 26 29 32 35 36 38 38 38 37 35 34 33 31 29 28 27 26 25 24 23 23
31 30 28 25 23 21 20 19 18 18 18 18 18 17 17 18 20 19 19 20 22 25 27 29 31 33 34 33 33 33 32 31 30 29 29 28 27 26 24 23 23 22 22
29 28 26 25 23 22 21 20 20 20 20 19 19 19 20 21 22 22 23 23 25 26 28 29 30 32 31 30 30 30 30 29 28 28 27 26 25 24 23 22 22 21 21
28 26 24 23 22 22 22 21 21 21 21 21 21 22 23 24 24 24 24 25 26 27 28 28 30 31 29 28 28 27 26 25 25 25 24 23 23 22 21 21 20 20 19
26 25 23 22 22 21 21 21 22 22 22 22 23 24 24 25 25 26 25 25 25 26 27 27 28 27 26 26 25 24 23 23 22 22 21 20 20 20 19 19 19 18 18
Wind_Direction
300 298 295 292 289 285 281 277 273 269 265 261 258 255 253 251 249 247 246 245 244 243 242 242 243 244 244 245 246 246 248 249 252 256 262 267 271 274 277 279 279 277 273
304 302 300 297 293 290 286 281 277 273 268 264 260 256 253 250 248 247 245 244 243 242 241 240 240 241 242 243 244 245 246 247 249 251 256 262 267 270 274 276 275 274 270
306 303 301 297 294 291 289 285 281 275 270 266 262 258 255 251 248 246 245 243 242 241 240 240 239 239 239 240 241 243 244 245 246 248 252 257 262 266 269 271 271 271 268
306 303 300 296 292 289 287 284 281 276 273 269 265 261 258 254 251 247 245 243 241 240 239 238 238 237 237 238 239 240 241 243 244 246 249 252 257 261 265 265 266 265 265
305 303 299 295 291 287 284 281 277 273 270 268 266 263 260 257 254 250 247 244 242 240 239 238 237 236 236 236 236 236 238 240 241 243 246 249 252 255 258 259 260 262 262
305 302 298 294 289 286 281 276 273 268 265 264 262 262 262 259 255 251 249 246 243 240 239 237 236 235 234 233 233 234 235 236 238 240 242 245 248 250 252 254 255 258 259
306 303 298 293 288 284 279 273 268 264 260 258 259 259 260 259 256 252 248 247 244 241 238 236 234 233 232 231 231 231 231 232 234 235 238 240 243 244 247 249 250 253 256
309 305 300 295 289 283 278 273 267 261 256 254 255 255 255 254 253 253 250 247 245 242 239 236 234 231 229 228 228 228 228 229 230 231 233 235 237 240 243 245 244 250 254
313 309 304 299 292 283 277 272 265 259 254 251 250 251 251 250 250 250 250 249 247 244 240 237 233 230 228 226 225 225 225 225 226 227 228 230 232 235 238 240 242 245 247
317 313 308 303 297 287 278 271 264 257 251 248 247 247 247 246 247 248 248 248 247 244 239 235 231 227 225 224 222 221 221 221 222 222 223 225 228 230 233 234 236 238 241
321 317 312 307 300 291 279 270 261 254 248 246 245 244 244 244 244 245 247 247 245 243 239 234 229 225 221 220 219 218 217 217 218 218 220 221 223 226 228 229 231 234 238
325 322 317 313 304 296 285 272 260 250 245 243 243 242 241 242 242 242 244 244 241 239 235 232 227 221 218 216 214 214 213 213 214 215 216 217 219 221 223 225 227 231 236
331 328 324 320 311 302 291 276 262 250 242 240 240 239 238 238 239 239 240 240 238 235 233 229 223 218 216 211 210 210 208 208 210 212 213 213 215 217 219 221 224 229 234
340 336 333 328 321 311 298 282 263 248 238 235 234 233 233 233 234 235 235 234 233 232 232 225 219 215 213 209 206 203 202 203 206 208 208 209 211 213 215 219 223 226 229
347 345 344 342 335 325 313 291 267 247 235 230 226 225 226 227 227 229 229 230 231 232 227 221 216 214 209 203 198 196 197 199 201 203 204 205 207 209 212 216 220 223 225
355 355 355 354 350 345 338 315 283 245 227 220 217 217 217 219 221 223 225 228 230 226 219 216 214 208 201 196 192 191 191 193 197 199 200 201 203 206 210 213 217 220 221
360 1 4 6 8 7 6 4 347 216 207 204 204 205 208 210 213 216 221 224 221 214 211 210 204 197 191 188 185 183 185 189 191 194 195 198 201 204 208 211 215 216 217
5 7 11 16 23 28 33 44 63 103 147 170 182 187 193 198 204 210 213 211 207 203 200 197 190 187 183 182 181 180 181 184 187 190 193 196 199 203 207 210 211 212 214
10 13 18 23 29 35 44 54 66 88 116 139 155 166 176 186 194 197 196 193 187 184 182 178 179 180 178 178 178 179 179 180 184 187 191 193 197 201 204 207 208 209 210
15 20 25 30 36 42 49 58 66 78 94 110 125 138 150 161 169 173 173 170 168 170 170 169 170 169 170 173 175 177 177 179 182 185 189 192 195 198 200 202 203 205 208
20 25 30 35 40 46 53 62 70 78 88 99 108 117 129 137 143 150 154 154 154 156 159 161 163 165 167 169 171 174 177 179 182 184 187 190 193 196 199 201 203 207 209
25 29 33 38 44 51 58 66 73 80 87 92 98 106 112 117 123 129 132 135 138 145 150 154 157 159 160 163 168 172 174 176 179 182 185 189 193 195 198 200 203 206 207
28 32 37 43 48 54 61 66 73 81 87 91 95 99 102 109 116 120 124 129 137 142 146 149 151 155 157 162 167 169 171 173 176 180 184 187 189 191 194 198 199 201 204
29 33 39 45 50 55 60 67 74 79 85 91 95 100 104 109 113 118 123 127 132 136 139 143 148 153 157 160 163 167 170 174 176 178 180 184 187 190 193 196 199 203 207
31 35 41 47 54 58 63 67 73 80 86 92 97 102 105 108 113 119 119 120 124 130 135 140 145 152 156 159 162 164 168 172 174 177 180 183 186 189 193 197 202 207 214
33 38 43 50 57 62 66 70 76 83 89 95 100 104 106 109 113 116 117 119 123 129 136 140 143 148 153 156 159 162 166 169 172 176 180 183 187 192 197 202 208 215 222
Height
5702 5697 5692 5688 5684 5681 5679 5678 5677 5676 5677 5678 5680 5683 5686 5690 5694 5699 5704 5708 5714 5719 5724 5729 5734 5739 5744 5747 5752 5757 5761 5765 5768 5770 5771 5773 5774 5775 5775 5775 5775 5775 5775
5683 5677 5671 5667 5663 5659 5657 5655 5653 5653 5653 5654 5656 5658 5662 5666 5671 5676 5681 5687 5693 5699 5706 5712 5718 5723 5729 5734 5739 5744 5749 5754 5758 5761 5763 5765 5766 5767 5768 5768 5768 5768 5769
5664 5658 5653 5648 5643 5640 5637 5635 5633 5632 5632 5633 5634 5635 5638 5642 5646 5652 5658 5664 5671 5678 5686 5693 5700 5707 5713 5719 5725 5731 5737 5742 5747 5751 5754 5756 5758 5760 5761 5761 5762 5762 5763
5648 5641 5635 5630 5625 5622 5619 5617 5615 5614 5614 5614 5615 5616 5618 5620 5624 5628 5634 5641 5648 5657 5665 5673 5681 5689 5697 5704 5711 5718 5724 5730 5736 5741 5745 5748 5750 5752 5753 5754 5755 5756 5757
5631 5623 5616 5611 5607 5604 5601 5600 5599 5598 5598 5599 5599 5600 5601 5603 5605 5608 5613 5619 5626 5634 5643 5653 5662 5671 5680 5689 5697 5704 5711 5718 5724 5730 5735 5739 5742 5744 5746 5747 5748 5749 5751
5613 5604 5597 5592 5588 5585 5583 5582 5582 5582 5583 5584 5586 5587 5588 5590 5591 5593 5596 5601 5606 5614 5623 5632 5643 5653 5663 5672 5681 5690 5698 5705 5713 5719 5725 5729 5733 5736 5738 5740 5742 5743 5745
5594 5585 5577 5571 5568 5565 5564 5564 5564 5566 5567 5570 5572 5574 5576 5578 5579 5581 5584 5588 5592 5597 5604 5613 5624 5635 5645 5656 5666 5675 5684 5693 5701 5708 5714 5720 5724 5727 5730 5732 5734 5737 5739
5576 5566 5557 5551 5547 5545 5544 5545 5546 5548 5551 5555 5558 5561 5564 5566 5569 5571 5573 5577 5581 5585 5590 5597 5607 5617 5629 5640 5651 5661 5671 5681 5690 5697 5705 5710 5715 5718 5722 5725 5727 5730 5732
5558 5548 5539 5533 5528 5526 5525 5526 5528 5531 5535 5539 5544 5548 5551 5555 5557 5560 5563 5567 5570 5574 5578 5584 5592 5602 5613 5625 5637 5648 5659 5668 5677 5686 5694 5700 5705 5710 5714 5717 5721 5723 5726
5543 5532 5524 5517 5512 5508 5508 5509 5511 5515 5520 5525 5530 5535 5539 5543 5547 5550 5553 5557 5561 5564 5568 5573 5580 5588 5598 5610 5623 5635 5646 5657 5666 5675 5683 5690 5696 5701 5706 5710 5714 5717 5719
5530 5519 5511 5503 5497 5494 5493 5493 5496 5500 5505 5511 5517 5522 5527 5532 5536 5540 5543 5547 5551 5554 5558 5563 5569 5577 5587 5598 5611 5623 5635 5645 5655 5664 5673 5681 5687 5693 5698 5703 5707 5711 5713
5519 5508 5499 5492 5486 5482 5480 5481 5483 5487 5493 5498 5504 5510 5516 5521 5525 5530 5534 5538 5541 5545 5549 5554 5560 5567 5577 5587 5599 5611 5623 5634 5645 5654 5664 5672 5680 5686 5691 5696 5700 5704 5707
5510 5499 5490 5483 5477 5473 5471 5471 5473 5477 5482 5488 5494 5500 5505 5510 5516 5520 5524 5528 5532 5537 5541 5545 5551 5559 5568 5578 5589 5600 5612 5624 5636 5646 5656 5665 5672 5678 5684 5689 5694 5698 5701
5504 5493 5484 5476 5471 5467 5465 5465 5467 5470 5474 5480 5485 5491 5497 5502 5507 5512 5516 5520 5525 5529 5533 5537 5543 5551 5560 5569 5579 5591 5604 5616 5628 5638 5648 5657 5664 5671 5678 5683 5688 5692 5696
5500 5490 5481 5473 5468 5465 5463 5462 5464 5466 5469 5474 5479 5485 5490 5496 5501 5505 5509 5514 5518 5521 5525 5530 5536 5543 5552 5561 5572 5584 5597 5609 5620 5631 5641 5650 5658 5665 5671 5677 5682 5686 5691
5500 5490 5481 5474 5468 5465 5463 5463 5463 5464 5467 5471 5476 5481 5486 5491 5495 5500 5504 5508 5511 5515 5519 5524 5529 5536 5545 5555 5566 5578 5591 5603 5615 5625 5635 5644 5653 5660 5666 5671 5676 5681 5685
5501 5492 5483 5476 5471 5467 5465 5464 5464 5465 5467 5470 5474 5478 5483 5488 5492 5496 5500 5503 5506 5510 5514 5519 5524 5531 5541 5551 5562 5575 5587 5599 5610 5621 5631 5640 5648 5655 5661 5667 5672 5676 5680
5504 5495 5487 5481 5476 5472 5470 5468 5467 5468 5469 5472 5475 5478 5482 5487 5491 5494 5497 5500 5503 5506 5511 5516 5522 5529 5539 5550 5561 5573 5584 5596 5607 5617 5627 5635 5643 5650 5657 5662 5667 5671 5676
5509 5500 5493 5487 5482 5479 5476 5474 5473 5473 5474 5475 5477 5480 5483 5487 5490 5493 5496 5499 5502 5505 5510 5515 5521 5529 5538 5550 5561 5572 5583 5594 5604 5615 5624 5632 5639 5646 5652 5658 5663 5667 5672
5514 5506 5499 5493 5489 5485 5482 5480 5479 5479 5479 5480 5481 5483 5486 5489 5491 5494 5496 5499 5503 5507 5511 5517 5523 5531 5541 5551 5562 5573 5583 5593 5603 5613 5621 5629 5636 5643 5649 5654 5659 5664 5668
5521 5513 5506 5501 5496 5493 5490 5488 5486 5485 5485 5486 5487 5488 5490 5492 5494 5496 5499 5502 5506 5510 5516 5522 5528 5536 5546 5555 5565 5575 5585 5594 5603 5612 5619 5627 5634 5640 5645 5651 5656 5660 5665
5528 5521 5514 5508 5504 5500 5497 5495 5494 5493 5493 5492 5493 5493 5495 5497 5499 5501 5504 5508 5512 5516 5522 5528 5535 5543 5551 5561 5570 5579 5588 5596 5604 5612 5619 5626 5632 5638 5643 5648 5653 5658 5662
5536 5529 5523 5517 5513 5509 5506 5504 5502 5501 5501 5501 5501 5501 5502 5504 5506 5508 5511 5515 5519 5523 5529 5536 5543 5551 5558 5566 5574 5582 5590 5598 5605 5612 5619 5625 5631 5636 5642 5646 5651 5656 5660
5543 5537 5531 5526 5522 5518 5515 5513 5511 5510 5509 5509 5509 5510 5511 5512 5515 5517 5520 5524 5528 5532 5538 5544 5551 5558 5565 5572 5579 5586 5593 5600 5607 5613 5619 5625 5630 5636 5640 5645 5649 5654 5657
5550 5545 5539 5535 5531 5527 5524 5522 5520 5519 5518 5518 5518 5519 5520 5522 5524 5527 5530 5533 5537 5542 5548 5553 5559 5566 5572 5578 5585 5591 5597 5603 5609 5615 5620 5625 5630 5635 5640 5644 5648 5652 5655
5557 5552 5547 5543 5539 5536 5534 5531 5530 5528 5527 5527 5527 5528 5530 5532 5534 5537 5540 5543 5547 5552 5557 5562 5567 5573 5578 5584 5590 5595 5601 5606 5612 5617 5622 5626 5631 5635 5639 5643 5646 5650 5652